| time (UTC) | temp F | wind direction | speed MPH | gust MPH | rain 1hr in | rain 24hr in | rain mn in | humidity % | barometer mb |
| 20260503015040 | 60 | 215 | 4.0 | 5.0 | 0.00 | 0.00 | 0.00 | 72 | 1032.5 |
| 20260503014551 | 60 | 225 | 2.0 | 5.0 | 0.00 | 0.00 | 0.00 | 72 | 1032.5 |
| 20260503014041 | 60 | 252 | 2.0 | 4.0 | 0.00 | 0.00 | 0.00 | 72 | 1032.6 |
| 20260503013540 | 60 | 239 | 2.0 | 8.0 | 0.00 | 0.00 | 0.00 | 72 | 1032.6 |
| 20260503013050 | 60 | 229 | 4.0 | 8.0 | 0.00 | 0.00 | 0.00 | 72 | 1032.6 |
| 20260503012540 | 60 | 262 | 3.0 | 7.0 | 0.00 | 0.00 | 0.00 | 71 | 1032.8 |
| 20260503012040 | 60 | 236 | 2.0 | 7.0 | 0.00 | 0.00 | 0.00 | 73 | 1032.8 |
| 20260503011548 | 60 | 221 | 2.0 | 5.0 | 0.00 | 0.00 | 0.00 | 72 | 1032.9 |
| 20260503011044 | 60 | 257 | 3.0 | 5.0 | 0.00 | 0.00 | 0.00 | 72 | 1032.9 |
| 20260503010540 | 60 | 229 | 2.0 | 4.0 | 0.00 | 0.00 | 0.00 | 73 | 1032.9 |
| 20260503010050 | 60 | 224 | 1.0 | 5.0 | 0.00 | 0.00 | 0.00 | 73 | 1033.0 |
| 20260503005541 | 59 | 223 | 2.0 | 5.0 | 0.00 | 0.00 | 0.00 | 73 | 1033.1 |
| 20260503005041 | 59 | 223 | 2.0 | 7.0 | 0.00 | 0.00 | 0.00 | 72 | 1033.2 |
| 20260503004547 | 59 | 240 | 2.0 | 8.0 | 0.00 | 0.00 | 0.00 | 74 | 1033.2 |
| 20260503004040 | 59 | 248 | 3.0 | 8.0 | 0.00 | 0.00 | 0.00 | 72 | 1033.2 |
| 20260503003540 | 60 | 229 | 1.0 | 4.0 | 0.00 | 0.00 | 0.00 | 72 | 1033.2 |
| 20260503003056 | 59 | 210 | 1.0 | 5.0 | 0.00 | 0.00 | 0.00 | 71 | 1033.2 |
| 20260503002539 | 60 | 220 | 2.0 | 5.0 | 0.00 | 0.00 | 0.00 | 71 | 1033.2 |
| 20260503002039 | 60 | 51 | 1.0 | 4.0 | 0.00 | 0.00 | 0.00 | 71 | 1033.3 |
| 20260503001551 | 60 | 71 | 1.0 | 4.0 | 0.00 | 0.00 | 0.00 | 72 | 1033.3 |
| 20260503001038 | 60 | 254 | 1.0 | 3.0 | 0.00 | 0.00 | 0.00 | 72 | 1033.5 |
| 20260503000538 | 59 | 244 | 1.0 | 6.0 | 0.00 | 0.00 | 0.00 | 73 | 1033.6 |
| 20260503000047 | 59 | 258 | 3.0 | 6.0 | 0.00 | 0.00 | 0.00 | 72 | 1033.7 |
| 20260502235538 | 59 | 253 | 1.0 | 4.0 | 0.00 | 0.00 | 0.00 | 73 | 1033.7 |
| 20260502235039 | 59 | 0 | 1.0 | 4.0 | 0.00 | 0.00 | 0.00 | 73 | 1033.8 |
| 20260502234552 | 59 | 253 | 2.0 | 5.0 | 0.00 | 0.00 | 0.00 | 73 | 1033.8 |
| 20260502234039 | 59 | 224 | 0.0 | 5.0 | 0.00 | 0.00 | 0.00 | 73 | 1033.7 |
| 20260502233539 | 59 | 65 | 3.0 | 5.0 | 0.00 | 0.00 | 0.00 | 72 | 1033.7 |
| 20260502233045 | 59 | 278 | 0.0 | 3.0 | 0.00 | 0.00 | 0.00 | 74 | 1033.9 |
| 20260502232538 | 58 | 0 | 0.0 | 4.0 | 0.00 | 0.00 | 0.00 | 74 | 1034.0 |
| 20260502232039 | 58 | 278 | 1.0 | 4.0 | 0.00 | 0.00 | 0.00 | 74 | 1034.0 |
| 20260502231554 | 58 | 318 | 1.0 | 4.0 | 0.00 | 0.00 | 0.00 | 72 | 1034.1 |
| 20260502231037 | 58 | 248 | 0.0 | 4.0 | 0.00 | 0.00 | 0.00 | 74 | 1034.0 |
| 20260502230536 | 57 | 248 | 1.0 | 4.0 | 0.00 | 0.00 | 0.00 | 76 | 1034.1 |
| 20260502230052 | 57 | 248 | 2.0 | 4.0 | 0.00 | 0.00 | 0.00 | 74 | 1034.1 |
| 20260502225537 | 58 | 263 | 2.0 | 3.0 | 0.00 | 0.00 | 0.00 | 74 | 1034.2 |
| 20260502225037 | 57 | 71 | 1.0 | 4.0 | 0.00 | 0.00 | 0.00 | 74 | 1034.2 |
| 20260502224550 | 57 | 338 | 1.0 | 4.0 | 0.00 | 0.00 | 0.00 | 74 | 1034.2 |
| 20260502224037 | 57 | 81 | 1.0 | 4.0 | 0.00 | 0.00 | 0.00 | 75 | 1034.4 |
| 20260502223536 | 56 | 91 | 1.0 | 6.0 | 0.00 | 0.00 | 0.00 | 76 | 1034.4 |
| 20260502223045 | 56 | 67 | 0.0 | 6.0 | 0.00 | 0.00 | 0.00 | 76 | 1034.5 |
| 20260502222536 | 57 | 67 | 3.0 | 6.0 | 0.00 | 0.00 | 0.00 | 76 | 1034.6 |
| 20260502222035 | 57 | 65 | 2.0 | 4.0 | 0.00 | 0.00 | 0.00 | 78 | 1034.6 |
| 20260502221552 | 56 | 72 | 1.0 | 5.0 | 0.00 | 0.00 | 0.00 | 81 | 1034.6 |
| 20260502221037 | 56 | 67 | 1.0 | 5.0 | 0.00 | 0.00 | 0.00 | 84 | 1034.6 |
| 20260502220536 | 56 | 85 | 2.0 | 5.0 | 0.00 | 0.00 | 0.00 | 84 | 1034.6 |
| 20260502220048 | 55 | 64 | 1.0 | 5.0 | 0.00 | 0.00 | 0.00 | 87 | 1034.6 |
| 20260502215535 | 55 | 72 | 2.0 | 5.0 | 0.00 | 0.00 | 0.00 | 87 | 1034.5 |
| 20260502215036 | 54 | 84 | 2.0 | 4.0 | 0.00 | 0.00 | 0.00 | 89 | 1034.7 |
| 20260502214557 | 54 | 79 | 1.0 | 4.0 | 0.00 | 0.00 | 0.00 | 90 | 1034.6 |
| 20260502214036 | 53 | 82 | 1.0 | 4.0 | 0.00 | 0.00 | 0.00 | 91 | 1034.5 |
| 20260502213539 | 53 | 103 | 1.0 | 4.0 | 0.00 | 0.00 | 0.00 | 92 | 1034.6 |
| 20260502213046 | 53 | 85 | 0.0 | 3.0 | 0.00 | 0.00 | 0.00 | 93 | 1034.6 |
| 20260502212536 | 52 | 89 | 0.0 | 3.0 | 0.00 | 0.00 | 0.00 | 93 | 1034.6 |
| 20260502212036 | 52 | 71 | 1.0 | 2.0 | 0.00 | 0.00 | 0.00 | 93 | 1034.7 |
| 20260502211549 | 52 | 82 | 0.0 | 2.0 | 0.00 | 0.00 | 0.00 | 94 | 1034.7 |
| 20260502211042 | 51 | 82 | 0.0 | 2.0 | 0.00 | 0.00 | 0.00 | 93 | 1034.7 |
| 20260502210539 | 51 | 86 | 0.0 | 3.0 | 0.00 | 0.00 | 0.00 | 94 | 1034.8 |
| 20260502210056 | 50 | 86 | 1.0 | 3.0 | 0.00 | 0.00 | 0.00 | 94 | 1034.7 |
| 20260502205540 | 50 | 0 | 1.0 | 3.0 | 0.00 | 0.00 | 0.00 | 94 | 1034.7 |
| 20260502205040 | 50 | 75 | 1.0 | 2.0 | 0.00 | 0.00 | 0.00 | 94 | 1034.8 |
| 20260502204554 | 49 | 104 | 1.0 | 2.0 | 0.00 | 0.00 | 0.00 | 94 | 1034.7 |
| 20260502204040 | 49 | 104 | 0.0 | 2.0 | 0.00 | 0.00 | 0.00 | 95 | 1034.7 |
| 20260502203542 | 49 | 104 | 0.0 | 2.0 | 0.00 | 0.00 | 0.00 | 95 | 1034.6 |
| 20260502203053 | 49 | 104 | 1.0 | 2.0 | 0.00 | 0.00 | 0.00 | 95 | 1034.6 |
| 20260502202540 | 49 | 111 | 0.0 | 1.0 | 0.00 | 0.00 | 0.00 | 95 | 1034.6 |
| 20260502202043 | 48 | 0 | 0.0 | 1.0 | 0.00 | 0.00 | 0.00 | 95 | 1034.7 |
| 20260502201547 | 48 | 0 | 0.0 | 1.0 | 0.00 | 0.00 | 0.00 | 95 | 1034.6 |
| 20260502201042 | 48 | 0 | 0.0 | 1.0 | 0.00 | 0.00 | 0.00 | 95 | 1034.6 |
| 20260502200540 | 48 | 111 | 0.0 | 1.0 | 0.00 | 0.00 | 0.00 | 95 | 1034.5 |
| 20260502200052 | 48 | 111 | 0.0 | 2.0 | 0.00 | 0.00 | 0.00 | 95 | 1034.5 |
| 20260502195538 | 47 | 0 | 1.0 | 2.0 | 0.00 | 0.00 | 0.00 | 95 | 1034.4 |
| 20260502195037 | 47 | 123 | 0.0 | 1.0 | 0.00 | 0.00 | 0.00 | 95 | 1034.5 |
| 20260502194546 | 47 | 124 | 0.0 | 1.0 | 0.00 | 0.00 | 0.00 | 95 | 1034.5 |
| 20260502194037 | 47 | 0 | 0.0 | 1.0 | 0.00 | 0.00 | 0.00 | 95 | 1034.5 |
| 20260502193539 | 47 | 166 | 0.0 | 1.0 | 0.00 | 0.00 | 0.00 | 95 | 1034.4 |
| 20260502193054 | 47 | 0 | 0.0 | 0.0 | 0.00 | 0.00 | 0.00 | 95 | 1034.4 |
| 20260502192539 | 47 | 0 | 0.0 | 0.0 | 0.00 | 0.00 | 0.00 | 95 | 1034.4 |
| 20260502192038 | 47 | 0 | 0.0 | 1.0 | 0.00 | 0.00 | 0.00 | 95 | 1034.4 |
| 20260502191553 | 46 | 0 | 0.0 | 1.0 | 0.00 | 0.00 | 0.00 | 95 | 1034.3 |
| 20260502191038 | 46 | 167 | 0.0 | 1.0 | 0.00 | 0.00 | 0.00 | 95 | 1034.3 |
| 20260502190538 | 46 | 0 | 0.0 | 1.0 | 0.00 | 0.00 | 0.00 | 95 | 1034.2 |
| 20260502190049 | 46 | 0 | 0.0 | 1.0 | 0.00 | 0.00 | 0.00 | 95 | 1034.3 |
| 20260502185538 | 46 | 0 | 0.0 | 0.0 | 0.00 | 0.00 | 0.00 | 94 | 1034.2 |
| 20260502185038 | 46 | 168 | 0.0 | 1.0 | 0.00 | 0.00 | 0.00 | 94 | 1034.2 |
| 20260502184551 | 46 | 0 | 0.0 | 1.0 | 0.00 | 0.00 | 0.00 | 95 | 1034.2 |
| 20260502184039 | 46 | 168 | 0.0 | 1.0 | 0.00 | 0.00 | 0.00 | 95 | 1034.2 |
| 20260502183539 | 46 | 0 | 0.0 | 2.0 | 0.00 | 0.00 | 0.00 | 94 | 1034.3 |
| 20260502183048 | 46 | 0 | 0.0 | 2.0 | 0.00 | 0.00 | 0.00 | 94 | 1034.3 |
| 20260502182538 | 46 | 218 | 0.0 | 2.0 | 0.00 | 0.00 | 0.00 | 95 | 1034.3 |
| 20260502182038 | 46 | 92 | 1.0 | 3.0 | 0.00 | 0.00 | 0.00 | 95 | 1034.3 |
| 20260502181552 | 45 | 92 | 1.0 | 3.0 | 0.00 | 0.00 | 0.00 | 95 | 1034.2 |
| 20260502181038 | 45 | 0 | 0.0 | 2.0 | 0.00 | 0.00 | 0.00 | 95 | 1034.2 |
| 20260502180538 | 45 | 91 | 1.0 | 2.0 | 0.00 | 0.00 | 0.00 | 95 | 1034.1 |
| 20260502164039 | 45 | 0 | 0.0 | 0.0 | 0.00 | 0.00 | 0.00 | 94 | 1034.0 |
| 20260502163539 | 45 | 0 | 0.0 | 0.0 | 0.00 | 0.00 | 0.00 | 94 | 1034.1 |
| 20260502163053 | 45 | 0 | 0.0 | 0.0 | 0.00 | 0.00 | 0.00 | 94 | 1034.1 |
| 20260502162539 | 45 | 0 | 0.0 | 3.0 | 0.00 | 0.00 | 0.00 | 94 | 1034.0 |
| 20260502162042 | 45 | 0 | 0.0 | 3.0 | 0.00 | 0.00 | 0.00 | 94 | 1034.1 |
| 20260502161546 | 45 | 89 | 1.0 | 3.0 | 0.00 | 0.00 | 0.00 | 94 | 1034.0 |
| 20260502161038 | 45 | 83 | 0.0 | 4.0 | 0.00 | 0.00 | 0.00 | 95 | 1034.0 |
| 20260502160539 | 45 | 0 | 0.0 | 4.0 | 0.00 | 0.00 | 0.00 | 95 | 1034.0 |
| 20260502152039 | 44 | 90 | 1.0 | 3.0 | 0.00 | 0.00 | 0.00 | 95 | 1034.2 |
| 20260502151557 | 44 | 109 | 1.0 | 3.0 | 0.00 | 0.00 | 0.00 | 95 | 1034.2 |
| 20260502151038 | 44 | 119 | 2.0 | 3.0 | 0.00 | 0.00 | 0.00 | 95 | 1034.3 |
| 20260502150538 | 44 | 0 | 1.0 | 3.0 | 0.00 | 0.00 | 0.00 | 95 | 1034.3 |
| 20260502130542 | 43 | 0 | 0.0 | 1.0 | 0.00 | 0.00 | 0.00 | 96 | 1034.4 |
| 20260502123543 | 42 | 0 | 0.0 | 0.0 | 0.00 | 0.00 | 0.00 | 95 | 1034.3 |
| 20260502123102 | 42 | 0 | 0.0 | 0.0 | 0.00 | 0.00 | 0.00 | 95 | 1034.2 |
| 20260502122539 | 42 | 0 | 0.0 | 0.0 | 0.00 | 0.00 | 0.00 | 96 | 1034.2 |
| 20260502122040 | 42 | 0 | 0.0 | 0.0 | 0.00 | 0.00 | 0.00 | 95 | 1034.2 |
| 20260502121549 | 42 | 0 | 0.0 | 0.0 | 0.00 | 0.00 | 0.00 | 95 | 1034.1 |
| 20260502121041 | 43 | 0 | 0.0 | 0.0 | 0.00 | 0.00 | 0.00 | 95 | 1034.1 |
| 20260502120539 | 43 | 0 | 0.0 | 0.0 | 0.00 | 0.00 | 0.00 | 95 | 1034.1 |
| 20260502115539 | 43 | 0 | 0.0 | 1.0 | 0.00 | 0.00 | 0.00 | 96 | 1033.9 |
| 20260502115039 | 43 | 0 | 0.0 | 1.0 | 0.00 | 0.00 | 0.00 | 96 | 1033.8 |
| 20260502114544 | 43 | 88 | 0.0 | 1.0 | 0.00 | 0.00 | 0.00 | 95 | 1033.8 |
| 20260502114039 | 43 | 88 | 0.0 | 1.0 | 0.00 | 0.00 | 0.00 | 94 | 1033.8 |
| 20260502113539 | 43 | 0 | 0.0 | 1.0 | 0.00 | 0.00 | 0.00 | 95 | 1033.8 |
| 20260502113053 | 43 | 88 | 0.0 | 1.0 | 0.00 | 0.00 | 0.00 | 96 | 1033.8 |
| 20260502112538 | 43 | 88 | 0.0 | 1.0 | 0.00 | 0.00 | 0.00 | 96 | 1033.7 |
| 20260502112035 | 43 | 88 | 0.0 | 1.0 | 0.00 | 0.00 | 0.00 | 95 | 1033.7 |
| 20260502111547 | 43 | 0 | 0.0 | 1.0 | 0.00 | 0.00 | 0.00 | 96 | 1033.7 |
| 20260502111038 | 43 | 0 | 0.0 | 1.0 | 0.00 | 0.00 | 0.00 | 95 | 1033.7 |
| 20260502110539 | 43 | 88 | 0.0 | 2.0 | 0.00 | 0.00 | 0.00 | 96 | 1033.7 |
| 20260502110053 | 42 | 88 | 0.0 | 2.0 | 0.00 | 0.00 | 0.00 | 94 | 1033.7 |
| 20260502105536 | 43 | 88 | 1.0 | 2.0 | 0.00 | 0.00 | 0.00 | 95 | 1033.7 |
| 20260502105036 | 43 | 88 | 1.0 | 1.0 | 0.00 | 0.00 | 0.00 | 95 | 1033.6 |
| 20260502104549 | 43 | 84 | 0.0 | 3.0 | 0.00 | 0.00 | 0.00 | 95 | 1033.6 |
| 20260502104038 | 43 | 81 | 1.0 | 3.0 | 0.00 | 0.00 | 0.00 | 95 | 1033.6 |
| 20260502103540 | 43 | 77 | 1.0 | 2.0 | 0.00 | 0.00 | 0.00 | 94 | 1033.7 |
| 20260502103045 | 43 | 71 | 1.0 | 2.0 | 0.00 | 0.00 | 0.00 | 95 | 1033.6 |
| 20260502102538 | 44 | 71 | 1.0 | 3.0 | 0.00 | 0.00 | 0.00 | 95 | 1033.7 |
| 20260502102038 | 44 | 76 | 1.0 | 3.0 | 0.00 | 0.00 | 0.00 | 95 | 1033.7 |
| 20260502101559 | 44 | 82 | 1.0 | 2.0 | 0.00 | 0.00 | 0.00 | 96 | 1033.7 |
| 20260502101037 | 44 | 72 | 0.0 | 1.0 | 0.00 | 0.00 | 0.00 | 95 | 1033.8 |
| 20260502100538 | 43 | 0 | 0.0 | 1.0 | 0.00 | 0.00 | 0.00 | 95 | 1033.7 |
| 20260502100113 | 44 | 0 | 0.0 | 1.0 | 0.00 | 0.00 | 0.00 | 95 | 1033.7 |
| 20260502091041 | 44 | 69 | 1.0 | 2.0 | 0.00 | 0.00 | 0.00 | 95 | 1033.2 |
| 20260502090538 | 44 | 0 | 0.0 | 2.0 | 0.00 | 0.00 | 0.00 | 94 | 1033.2 |
| 20260502090528 | 44 | 0 | 0.0 | 3.0 | 0.00 | 0.00 | 0.00 | 94 | 1033.2 |